• In United Kingdom
  • List of Countries
  • For 7 days
  • Water Temperature
  • Satellite Maps
  • Weather Map
  • Weather Widgets
  • user-avatar
    Login

    Hourly Weather Perth

    Today, 24 June, Saturday

    Time Temperature Precipitation Wind Pressure Humidity
    00:00 +13°C° 0 mm 6 mps 766 mmHg 82%
    01:00 +11°C° 0 mm 6 mps 766 mmHg 82%
    02:00 +12°C° 0 mm 5 mps 766 mmHg 82%
    03:00 +12°C° 0 mm 5 mps 766 mmHg 83%
    04:00 +10°C° 0 mm 5 mps 766 mmHg 83%
    05:00 +10°C° 0 mm 5 mps 766 mmHg 84%
    06:00 +10°C° 0 mm 5 mps 766 mmHg 84%
    07:00 +10°C° 0 mm 5 mps 766 mmHg 83%
    08:00 +10°C° 0 mm 5 mps 767 mmHg 83%
    09:00 +12°C° 0 mm 5 mps 767 mmHg 76%
    10:00 +14°C° 0 mm 5 mps 767 mmHg 69%
    11:00 +15°C° 0 mm 5 mps 767 mmHg 62%
    12:00 +16°C° 0 mm 5 mps 766 mmHg 60%
    13:00 +17°C° 0 mm 5 mps 766 mmHg 57%
    14:00 +18°C° 0 mm 4 mps 766 mmHg 54%
    15:00 +17°C° 0 mm 4 mps 766 mmHg 58%
    16:00 +17°C° 0 mm 4 mps 766 mmHg 61%
    17:00 +15°C° 0 mm 4 mps 766 mmHg 65%
    18:00 +14°C° 0 mm 4 mps 766 mmHg 69%
    19:00 +13°C° 0 mm 4 mps 766 mmHg 73%
    20:00 +12°C° 0 mm 4 mps 767 mmHg 78%
    21:00 +11°C° 0 mm 4 mps 767 mmHg 80%
    22:00 +11°C° 0 mm 4 mps 767 mmHg 82%
    23:00 +11°C° 0 mm 4 mps 768 mmHg 84%

    Tomorrow, 25 June, Sunday

    Time Temperature Precipitation Wind Pressure Humidity
    00:00 +10°C° 0 mm 4 mps 768 mmHg 86%
    01:00 +10°C° 0 mm 4 mps 768 mmHg 88%
    02:00 +10°C° 0 mm 4 mps 768 mmHg 90%
    03:00 +8°C° 0 mm 4 mps 768 mmHg 90%
    04:00 +8°C° 0 mm 4 mps 768 mmHg 91%
    05:00 +8°C° 0 mm 4 mps 768 mmHg 91%
    06:00 +8°C° 0 mm 4 mps 768 mmHg 90%
    07:00 +8°C° 0 mm 4 mps 768 mmHg 89%
    08:00 +8°C° 0 mm 4 mps 769 mmHg 88%
    09:00 +11°C° 0 mm 4 mps 769 mmHg 78%
    10:00 +13°C° 0 mm 4 mps 769 mmHg 68%
    11:00 +15°C° 0 mm 4 mps 769 mmHg 57%
    12:00 +16°C° 0 mm 3 mps 768 mmHg 54%
    13:00 +17°C° 0 mm 3 mps 768 mmHg 51%
    14:00 +18°C° 0 mm 3 mps 767 mmHg 48%
    15:00 +16°C° 0 mm 3 mps 767 mmHg 53%
    16:00 +14°C° 0 mm 3 mps 767 mmHg 57%
    17:00 +13°C° 0 mm 3 mps 767 mmHg 62%
    18:00 +12°C° 0 mm 3 mps 768 mmHg 66%
    19:00 +11°C° 0 mm 3 mps 768 mmHg 70%
    20:00 +10°C° 0 mm 3 mps 768 mmHg 74%
    21:00 +10°C° 0 mm 3 mps 769 mmHg 75%
    22:00 +9°C° 0 mm 3 mps 769 mmHg 77%
    23:00 +9°C° 0 mm 2 mps 769 mmHg 79%

    Day after tomorrow, 26 June, Monday

    Time Temperature Precipitation Wind Pressure Humidity
    00:00 +9°C° 0 mm 2 mps 769 mmHg 80%
    01:00 +8°C° 0 mm 2 mps 769 mmHg 82%
    02:00 +8°C° 0 mm 2 mps 769 mmHg 84%
    03:00 +8°C° 0 mm 2 mps 769 mmHg 85%
    04:00 +8°C° 0 mm 2 mps 768 mmHg 86%
    05:00 +8°C° 0 mm 2 mps 768 mmHg 88%
    06:00 +8°C° 0 mm 2 mps 769 mmHg 88%
    07:00 +8°C° 0 mm 2 mps 769 mmHg 87%
    08:00 +8°C° 0 mm 2 mps 769 mmHg 87%
    09:00 +10°C° 0 mm 2 mps 769 mmHg 76%
    10:00 +14°C° 0 mm 2 mps 769 mmHg 65%
    11:00 +16°C° 0 mm 2 mps 769 mmHg 54%
    12:00 +17°C° 0 mm 2 mps 769 mmHg 51%
    13:00 +18°C° 0 mm 2 mps 768 mmHg 48%
    14:00 +18°C° 0 mm 2 mps 768 mmHg 45%
    15:00 +17°C° 0 mm 2 mps 768 mmHg 51%
    16:00 +16°C° 0 mm 2 mps 768 mmHg 57%
    17:00 +15°C° 0 mm 2 mps 768 mmHg 63%
    18:00 +13°C° 0 mm 3 mps 769 mmHg 68%
    19:00 +12°C° 0 mm 3 mps 769 mmHg 74%
    20:00 +10°C° 0 mm 3 mps 770 mmHg 80%
    21:00 +10°C° 0 mm 3 mps 770 mmHg 83%
    22:00 +10°C° 0 mm 3 mps 770 mmHg 85%
    23:00 +9°C° 0 mm 3 mps 770 mmHg 88%

    27 June, Tuesday

    Time Temperature Precipitation Wind Pressure Humidity
    00:00 +9°C° 0 mm 3 mps 770 mmHg 90%
    01:00 +8°C° 0 mm 3 mps 770 mmHg 92%
    02:00 +8°C° 0 mm 3 mps 770 mmHg 94%
    03:00 +8°C° 0 mm 3 mps 770 mmHg 94%
    04:00 +8°C° 0 mm 3 mps 770 mmHg 94%
    05:00 +7°C° 0 mm 3 mps 770 mmHg 94%
    06:00 +8°C° 0 mm 3 mps 771 mmHg 93%
    07:00 +8°C° 0 mm 3 mps 771 mmHg 92%
    08:00 +8°C° 0 mm 2 mps 771 mmHg 90%
    09:00 +10°C° 0 mm 3 mps 771 mmHg 81%
    10:00 +13°C° 0 mm 3 mps 771 mmHg 71%
    11:00 +16°C° 0 mm 3 mps 771 mmHg 61%
    12:00 +17°C° 0 mm 3 mps 771 mmHg 58%
    13:00 +18°C° 0 mm 3 mps 770 mmHg 56%
    14:00 +18°C° 0 mm 3 mps 770 mmHg 53%
    15:00 +17°C° 0 mm 3 mps 770 mmHg 58%
    16:00 +16°C° 0 mm 3 mps 770 mmHg 63%
    17:00 +14°C° 0 mm 3 mps 771 mmHg 68%
    18:00 +13°C° 0 mm 3 mps 771 mmHg 72%
    19:00 +12°C° 0 mm 3 mps 772 mmHg 76%
    20:00 +11°C° 0 mm 3 mps 772 mmHg 80%
    21:00 +11°C° 0 mm 3 mps 772 mmHg 82%
    22:00 +10°C° 0 mm 3 mps 773 mmHg 83%
    23:00 +10°C° 0 mm 3 mps 773 mmHg 84%

    28 June, Wednesday

    Time Temperature Precipitation Wind Pressure Humidity
    00:00 +10°C° 0 mm 4 mps 773 mmHg 86%
    01:00 +10°C° 0 mm 4 mps 773 mmHg 87%
    02:00 +8°C° 0 mm 4 mps 773 mmHg 88%
    03:00 +8°C° 0 mm 4 mps 773 mmHg 88%
    04:00 +8°C° 0 mm 4 mps 773 mmHg 88%
    05:00 +8°C° 0 mm 4 mps 773 mmHg 88%
    06:00 +8°C° 0 mm 4 mps 773 mmHg 89%
    07:00 +8°C° 0 mm 4 mps 774 mmHg 89%
    08:00 +8°C° 0 mm 4 mps 774 mmHg 90%
    09:00 +11°C° 0 mm 4 mps 774 mmHg 80%
    10:00 +13°C° 0 mm 4 mps 774 mmHg 70%
    11:00 +15°C° 0 mm 5 mps 774 mmHg 61%
    12:00 +17°C° 0 mm 4 mps 773 mmHg 56%
    13:00 +18°C° 0 mm 4 mps 772 mmHg 51%
    14:00 +18°C° 0 mm 3 mps 771 mmHg 47%
    15:00 +17°C° 0 mm 3 mps 771 mmHg 51%
    16:00 +16°C° 0 mm 3 mps 771 mmHg 55%
    17:00 +15°C° 0 mm 2 mps 771 mmHg 59%
    18:00 +13°C° 0 mm 3 mps 772 mmHg 62%
    19:00 +11°C° 0 mm 3 mps 772 mmHg 65%
    20:00 +10°C° 0 mm 3 mps 772 mmHg 67%
    21:00 +10°C° 0 mm 4 mps 772 mmHg 67%
    22:00 +10°C° 0 mm 4 mps 772 mmHg 67%
    23:00 +10°C° 0 mm 4 mps 772 mmHg 67%

    29 June, Thursday

    Time Temperature Precipitation Wind Pressure Humidity
    00:00 +10°C° 0 mm 4 mps 772 mmHg 67%
    01:00 +8°C° 0 mm 5 mps 772 mmHg 68%
    02:00 +8°C° 0 mm 5 mps 771 mmHg 69%
    03:00 +8°C° 0 mm 5 mps 771 mmHg 69%
    04:00 +7°C° 0 mm 5 mps 771 mmHg 68%
    05:00 +7°C° 0 mm 5 mps 771 mmHg 68%
    06:00 +7°C° 0 mm 5 mps 771 mmHg 68%
    07:00 +7°C° 0 mm 5 mps 771 mmHg 68%
    08:00 +7°C° 0 mm 5 mps 771 mmHg 68%
    09:00 +9°C° 0 mm 5 mps 771 mmHg 61%
    10:00 +12°C° 0 mm 5 mps 771 mmHg 54%
    11:00 +14°C° 0 mm 5 mps 770 mmHg 46%
    12:00 +15°C° 0 mm 5 mps 770 mmHg 43%
    13:00 +17°C° 0 mm 4 mps 769 mmHg 40%
    14:00 +18°C° 0 mm 4 mps 768 mmHg 36%
    15:00 +17°C° 0 mm 3 mps 768 mmHg 41%
    16:00 +14°C° 0 mm 3 mps 767 mmHg 46%
    17:00 +14°C° 0 mm 2 mps 767 mmHg 51%
    18:00 +13°C° 0 mm 2 mps 767 mmHg 53%
    19:00 +11°C° 0 mm 3 mps 767 mmHg 55%
    20:00 +9°C° 0 mm 3 mps 768 mmHg 57%
    21:00 +9°C° 0 mm 3 mps 767 mmHg 56%
    22:00 +9°C° 0 mm 3 mps 767 mmHg 55%
    23:00 +9°C° 0 mm 3 mps 767 mmHg 54%
    Show more